This is the latest recevied weather packets stored in our database for station/object AD8IZ-13. If no packets are shown the sender has not sent any weather packets the latest 10 day(s).
| Time | Temp. | Humidity | Pressure | Rain* | Wind** | Luminosity | Snow |
|---|---|---|---|---|---|---|---|
| 1787439319 | 24.44° C | 81% | 1010.1 hPa | 0 mm | - | 65 W/m² | - |
| 1787438722 | 25° C | 81% | 1010.1 hPa | 0 mm | - | 81 W/m² | - |
| 1787438120 | 25.56° C | 80% | 1010.2 hPa | 0 mm | - | 73 W/m² | - |
| 1787437519 | 25° C | 80% | 1010.1 hPa | 0 mm | - | 160 W/m² | - |
| 1787436921 | 24.44° C | 81% | 1010.1 hPa | 0.76 mm | - | 201 W/m² | - |
| 1787436323 | 24.44° C | 81% | 1010.3 hPa | 0.76 mm | - | 195 W/m² | - |
| 1787435720 | 24.44° C | 79% | 1010.3 hPa | 0.76 mm | - | 162 W/m² | - |
| 1787435118 | 24.44° C | 78% | 1010.1 hPa | 0.76 mm | - | 182 W/m² | - |
| 1787434517 | 25° C | 77% | 1010 hPa | 0.76 mm | - | 129 W/m² | - |
| 1787433921 | 25.56° C | 76% | 1009.7 hPa | 0.76 mm | - | 181 W/m² | - |
| 1787433321 | 26.11° C | 73% | 1009.7 hPa | 0 mm | - | 124 W/m² | - |
| 1787432722 | 25.56° C | 73% | 1009.5 hPa | 0 mm | - | 283 W/m² | - |
| 1787432119 | 25° C | 74% | 1009.6 hPa | 0 mm | - | 323 W/m² | - |
| 1787431518 | 24.44° C | 72% | 1009.7 hPa | 0 mm | - | 268 W/m² | - |
| 1787430920 | 24.44° C | 73% | 1010.2 hPa | 0 mm | - | 235 W/m² | - |
| 1787430320 | 23.89° C | 73% | 1010.3 hPa | 0 mm | - | 166 W/m² | - |
| 1787429719 | 23.89° C | 75% | 1010.2 hPa | 0 mm | - | 113 W/m² | - |
| 1787429119 | 23.89° C | 74% | 1010.2 hPa | 0 mm | - | 89 W/m² | - |
| 1787428520 | 25.56° C | 71% | 1010.2 hPa | 0 mm | - | 97 W/m² | - |
| 1787427921 | 26.67° C | 71% | 1010.1 hPa | 0 mm | - | 53 W/m² | - |
| 1787427318 | 27.22° C | 71% | 1010.1 hPa | 0 mm | - | 131 W/m² | - |
| 1787426721 | 27.78° C | 70% | 1010.1 hPa | 0 mm | - | 188 W/m² | - |
| 1787426120 | 27.78° C | 69% | 1009.8 hPa | 0 mm | - | 180 W/m² | - |
| 1787425522 | 28.33° C | 65% | 1009.9 hPa | 0 mm | - | 146 W/m² | - |
| 1787424925 | 28.33° C | 66% | 1010.2 hPa | 0 mm | - | 914 W/m² | - |
* Rain latest hour (hover to see other rain measurements)
** Current wind speed in m/s (hover to see current wind gust speed)